Location: Aulagny
(45.1643°N, 4.3096°E)
Time: 13:18:29
(UTC+00:00)

NOSS 3-2 (A) - Pass Details

Date: 21 October 2019
Orbit: 816 x 1392 km, 63.4° (Epoch: 11 November)

Event Time Altitude Azimuth Distance (km) Brightness Sun altitude
Rises 17:31:36 0° 188° (S) 3,363 6.5 -8.4°
Reaches altitude 10° 17:34:06 10° 180° (S) 2,471 5.7 -8.8°
Maximum altitude 17:39:16 37° 115° (ESE) 1,385 3.9 -9.7°
Drops below altitude 10° 17:44:59 10° 50° (NE) 2,753 5.4 -10.7°
Enters shadow 17:46:23 - 46° (NE) 3,250 5.8 -10.9°
